Wind_Speed
3 6 7 6 7 8 11 11 8 11 13 13 11 9 8 7 4 5 3 7 4 4 4 4 5 5 5 5 4 4 4 4 5 10 13 15 14 14 18 20 23 24 23 24 26 30 32 33 33 31 32 33 33 31 27 28 26 23 27 30 27 25 25 25 24 21 19 19 18 18 19 16 12 12 12 8 6 5 5 6 4 1 5 3 2 2
2 6 8 7 7 9 12 13 10 11 12 11 9 7 6 6 5 5 2 4 2 3 2 2 3 3 5 5 4 4 3 1 1 3 9 9 10 16 19 20 21 22 23 26 27 29 31 33 34 33 33 34 34 31 28 28 26 24 27 29 26 26 26 24 22 19 16 16 17 17 18 16 12 13 11 6 5 7 9 9 6 2 6 3 5 2
2 6 10 8 5 8 11 11 10 11 11 10 7 5 5 4 6 5 4 3 3 4 0 0 1 3 4 4 2 3 0 3 3 5 10 7 14 14 17 21 20 20 23 27 28 28 30 32 33 32 32 33 32 29 28 28 25 23 26 27 26 26 26 22 20 18 15 15 16 16 18 14 11 13 9 5 6 8 8 7 5 3 5 4 3 5
3 5 10 9 6 8 11 11 10 9 8 6 5 4 3 1 1 2 3 2 3 3 3 3 3 2 2 3 2 4 2 4 5 7 8 5 14 14 17 21 21 22 23 27 29 27 28 31 32 30 29 32 31 28 26 26 24 23 26 27 26 27 24 21 19 17 15 15 15 16 18 13 10 12 10 7 8 7 6 4 2 2 4 5 2 2
6 8 10 9 7 8 11 12 9 7 6 5 3 3 4 3 4 4 3 1 2 2 3 5 4 2 2 3 3 2 2 5 6 5 1 6 11 14 19 20 22 24 22 26 29 27 29 31 31 30 29 30 30 25 24 25 23 22 24 26 26 25 23 21 19 18 16 15 15 17 18 13 11 14 11 8 8 6 4 3 3 4 5 4 2 3
7 9 10 10 10 9 11 11 8 7 7 5 0 2 8 9 6 2 5 4 1 1 2 4 2 2 2 3 2 1 2 4 2 1 3 7 7 11 18 19 21 23 21 24 28 27 29 30 31 32 30 30 29 23 23 24 22 21 23 25 25 23 21 20 18 16 15 15 17 18 17 14 14 13 11 8 6 5 4 5 6 6 5 2 2 4
5 5 5 6 10 10 10 9 7 6 6 5 4 7 10 10 9 6 1 1 2 2 4 4 1 0 2 3 2 2 3 2 2 2 4 6 6 9 14 16 19 23 22 24 28 30 30 31 33 33 31 30 28 24 24 23 21 20 22 22 23 22 20 19 17 14 15 16 18 18 14 14 13 10 10 7 4 5 7 8 8 5 3 3 3 4
5 7 5 5 9 7 6 5 5 6 6 5 8 11 12 9 9 9 4 3 3 2 4 4 2 1 1 2 1 2 2 1 3 4 3 3 5 7 10 10 16 22 24 25 28 30 31 31 32 32 31 29 26 25 24 23 21 20 20 21 22 21 19 18 16 14 15 16 17 16 12 12 11 8 9 9 6 7 8 8 7 3 2 4 4 4
4 6 6 7 8 5 5 6 5 6 6 7 11 12 11 9 9 8 5 1 0 1 3 4 3 1 1 1 1 2 2 3 4 3 1 2 5 7 7 8 13 20 23 25 27 29 31 30 30 30 30 29 27 26 24 23 23 21 20 20 20 20 19 17 15 15 15 15 15 14 11 10 10 9 10 10 9 7 6 6 5 2 2 5 5 4
5 2 3 4 4 5 8 7 6 6 6 8 11 12 10 8 7 4 3 2 1 2 0 2 3 1 2 2 1 1 2 4 4 2 2 3 3 1 7 10 14 20 22 23 26 30 30 28 28 29 29 29 28 27 24 22 23 22 20 19 19 20 19 17 15 16 15 14 14 14 12 10 9 10 10 9 8 6 4 6 6 5 5 5 5 4
8 2 1 2 5 7 9 8 7 8 7 8 9 9 8 7 4 1 2 2 2 2 3 4 6 4 2 4 2 1 3 4 5 4 3 1 2 6 15 17 19 21 21 21 25 28 26 24 26 27 28 28 28 27 25 23 22 21 19 18 19 20 19 16 15 16 16 13 14 15 14 12 10 9 8 9 9 6 6 6 5 6 8 7 6 3
8 4 3 6 8 6 7 7 8 6 5 5 6 7 7 5 3 1 2 1 1 2 2 5 8 5 4 4 3 3 5 5 6 7 5 2 8 16 22 22 21 21 22 23 24 25 23 22 24 27 27 27 28 27 24 22 21 21 20 19 19 18 17 15 14 16 15 14 14 14 14 13 11 10 8 9 9 7 7 6 5 4 6 7 6 4
5 4 4 5 7 4 3 7 6 4 4 4 5 6 5 3 2 1 1 2 1 2 2 5 8 7 5 5 6 5 6 6 7 9 10 8 13 19 22 22 21 21 23 24 23 24 24 23 24 25 23 23 25 26 24 21 19 20 21 20 18 17 16 15 14 15 15 14 15 15 14 13 12 11 9 9 8 8 9 7 6 5 6 7 9 7
5 2 2 3 6 3 4 5 5 4 6 6 5 5 4 3 4 4 3 2 2 4 5 4 6 4 3 5 6 4 5 8 10 11 13 14 14 16 19 20 20 20 22 24 24 24 23 22 23 22 20 19 21 22 22 20 18 18 19 17 16 16 16 16 15 15 16 15 15 16 15 13 12 12 11 10 8 7 9 9 6 6 8 7 8 7
5 3 3 5 7 7 4 1 2 4 5 5 5 4 3 3 4 5 3 2 2 4 7 5 3 2 2 5 4 2 4 9 12 11 13 15 15 16 17 18 19 18 19 21 21 22 20 19 20 19 17 17 17 18 19 19 17 17 17 16 15 16 15 15 15 16 16 14 15 17 16 16 13 11 12 11 10 9 9 10 7 6 7 5 5 6
5 5 7 11 11 3 3 2 2 5 3 2 2 2 3 2 1 2 3 1 3 4 6 6 4 4 5 8 8 3 4 9 12 11 10 11 13 16 17 18 18 17 17 17 17 17 15 16 16 15 14 14 14 15 16 16 15 15 16 16 16 16 15 14 14 14 15 14 15 17 18 17 14 12 12 12 12 11 11 11 8 7 8 5 4 6
5 6 9 9 8 1 6 4 4 5 3 1 2 2 5 3 2 0 3 1 3 5 3 3 5 4 3 8 9 6 5 8 10 9 8 8 7 9 12 14 18 18 16 14 14 14 13 12 13 12 12 12 12 13 13 14 14 14 16 16 16 16 15 14 14 14 15 14 15 17 18 18 15 13 11 11 12 12 11 12 11 10 10 7 6 8
3 6 8 8 5 6 9 7 3 2 1 2 4 6 7 3 2 1 2 0 3 5 3 4 7 5 2 4 7 8 7 7 8 8 8 8 6 5 6 8 11 15 15 13 12 13 12 11 11 11 11 11 11 12 12 12 13 14 15 17 17 16 16 15 14 13 15 15 16 18 19 17 16 13 11 12 12 12 11 12 12 12 12 11 11 11
4 4 5 7 9 10 10 6 3 1 2 2 5 7 5 2 1 2 2 2 2 4 3 4 7 6 4 4 6 9 8 7 7 6 7 8 7 7 6 5 7 10 12 12 12 13 12 11 11 11 11 11 11 12 12 11 11 13 14 15 16 16 16 15 14 14 15 17 18 20 20 18 16 13 13 13 12 11 11 11 11 11 11 12 12 12
3 2 4 7 11 11 7 4 5 5 2 2 3 5 4 2 3 5 3 1 1 2 3 4 4 5 5 4 5 8 9 8 8 6 5 6 8 8 7 7 8 8 10 11 12 13 13 12 10 11 11 10 9 11 12 11 11 12 13 13 14 14 15 14 14 15 16 17 18 20 20 19 17 15 15 14 12 11 10 9 10 10 11 11 12 12
3 3 5 7 9 7 4 4 6 7 6 5 4 4 5 3 4 4 2 1 1 1 3 5 4 3 2 2 4 8 9 9 10 8 5 8 12 11 9 11 12 10 11 12 12 13 14 14 12 12 13 11 8 9 11 12 11 11 11 11 12 12 13 14 15 16 17 17 18 19 19 19 17 17 16 13 11 11 11 10 11 13 12 11 11 12
3 5 6 5 6 4 2 2 5 7 7 5 4 4 6 5 3 2 1 3 2 2 2 3 4 2 1 1 4 6 6 8 11 10 7 11 16 13 10 12 13 11 10 11 11 12 14 15 13 12 13 13 11 9 10 10 10 11 10 10 11 12 14 14 14 15 16 16 16 16 17 17 16 17 15 12 10 10 12 13 13 14 12 10 10 11
4 4 5 6 6 4 2 2 2 7 8 4 3 3 4 5 2 1 3 4 3 1 1 3 4 3 1 2 5 6 7 10 12 12 11 14 16 13 11 11 11 11 12 11 12 13 14 13 12 11 12 13 13 11 10 10 11 11 11 11 11 12 13 13 13 13 14 14 14 15 15 14 15 16 13 12 12 13 14 14 13 12 10 9 9 8
4 2 5 6 4 3 3 3 4 6 6 5 4 4 3 7 6 2 2 3 2 1 1 3 4 3 3 3 6 8 10 12 14 13 14 17 16 14 14 13 12 14 14 12 12 15 15 14 12 11 11 11 13 12 11 10 10 10 10 11 11 12 13 13 12 12 12 12 13 14 14 14 15 15 13 13 14 14 13 13 12 10 8 7 7 6
4 2 4 6 4 3 2 3 4 5 5 6 6 7 7 9 13 7 2 2 2 3 2 2 3 3 4 4 7 10 10 11 14 15 15 16 16 15 15 15 16 17 16 14 13 14 15 14 14 12 11 11 13 13 12 12 11 10 10 10 11 11 12 12 11 9 10 11 11 12 13 13 13 13 11 10 11 9 8 8 8 7 6 4 4 4
4 1 3 5 4 4 4 2 3 4 6 5 7 10 11 10 13 8 3 2 3 4 3 3 5 6 5 5 8 9 10 11 13 15 15 14 16 17 16 17 18 18 19 17 15 15 14 14 15 15 13 13 13 13 13 13 12 10 10 10 10 9 10 9 8 7 8 9 9 9 10 10 9 8 6 5 5 5 5 4 3 3 3 2 1 2
4 2 1 2 4 2 4 8 4 5 5 6 9 13 12 13 12 7 3 3 4 4 5 6 8 9 8 8 8 8 10 11 11 14 16 14 15 17 18 19 19 18 18 18 17 17 16 14 14 15 15 14 13 12 12 13 14 13 12 11 10 9 10 10 8 7 8 9 8 8 7 6 5 4 4 4 5 5 5 4 3 1 1 1 1 2
4 5 1 2 8 6 8 9 2 9 6 7 11 13 13 12 11 8 5 5 5 2 5 7 10 11 9 9 10 9 10 10 10 13 16 15 16 18 20 21 20 19 18 18 18 18 17 15 15 15 16 15 14 14 13 14 15 14 13 11 10 11 11 11 9 9 11 11 10 10 9 8 7 6 6 6 5 5 5 5 4 3 2 2 3 4
3 5 4 5 9 9 8 6 6 8 6 8 11 12 13 13 11 9 7 8 7 2 5 7 9 10 9 9 10 9 9 11 13 14 16 17 18 20 22 21 19 20 20 19 19 20 18 17 16 16 15 14 15 15 14 15 14 14 14 13 12 13 13 13 13 13 14 13 11 11 10 8 8 7 7 6 5 5 5 4 4 3 2 3 4 4
2 4 6 8 8 9 10 7 10 9 7 10 11 12 13 14 13 9 7 8 9 8 8 9 11 10 8 9 11 9 11 15 17 16 16 18 20 22 22 21 19 20 21 21 21 22 21 19 19 19 18 16 17 17 16 17 17 16 17 16 15 15 14 14 13 13 14 14 13 11 8 7 8 7 6 6 6 6 5 4 4 2 1 2 2 2
3 4 7 9 7 7 8 5 10 5 5 10 11 12 13 14 14 9 8 7 8 8 11 11 11 9 7 10 14 13 14 17 17 16 15 16 19 22 23 22 21 20 20 21 21 21 21 21 20 20 19 18 17 18 19 20 19 19 18 17 17 16 14 14 14 14 14 15 13 11 8 8 7 6 5 5 6 7 8 8 8 6 5 4 2 1
4 5 6 8 5 5 7 3 8 7 6 10 11 12 13 12 9 5 5 7 6 5 8 8 7 6 5 9 13 13 14 17 17 16 16 16 17 19 22 23 23 21 20 21 21 21 21 21 19 19 20 19 18 19 20 20 18 18 17 15 15 15 14 15 15 15 15 14 13 13 13 12 11 10 9 8 9 10 11 10 10 10 8 7 7 8
5 5 5 6 5 5 8 6 3 4 4 5 7 10 11 10 9 5 7 10 7 4 3 3 4 6 6 7 9 9 10 14 16 15 20 23 19 18 21 23 23 22 21 21 21 20 21 21 18 17 17 18 18 18 18 18 18 17 17 17 15 14 16 17 16 15 15 14 14 14 13 13 13 13 13 13 12 11 11 11 11 11 11 11 12 12
6 6 5 5 4 6 8 7 3 2 1 1 3 7 7 9 11 10 9 10 7 4 2 3 4 7 8 6 6 8 9 14 17 16 20 27 23 20 22 23 23 24 22 21 20 18 20 22 19 16 16 15 15 16 17 18 18 18 17 17 17 16 16 16 16 15 15 14 14 13 12 12 12 12 12 11 10 11 11 12 12 12 12 12 12 12
6 5 4 4 4 5 7 7 5 2 1 1 2 7 7 8 11 11 10 12 10 6 5 7 8 8 9 7 8 13 16 19 21 19 21 27 26 23 24 24 23 23 21 20 19 19 20 19 17 16 16 14 14 15 15 15 16 18 18 17 17 17 16 16 16 16 16 16 15 14 14 14 13 13 13 11 11 12 13 13 12 12 12 12 13 13
5 4 3 3 4 5 5 5 3 2 2 3 5 8 8 6 7 7 8 12 12 8 5 8 9 8 9 11 12 16 20 22 23 22 24 26 25 24 25 24 24 23 21 19 18 18 18 17 15 16 17 16 16 15 15 14 13 15 16 15 15 16 16 15 16 16 16 16 15 15 15 14 14 14 14 13 13 13 13 12 12 12 11 11 14 15
5 3 3 3 3 4 5 3 3 5 3 5 4 5 7 6 5 3 3 8 12 9 5 8 8 6 8 13 16 19 22 21 18 18 21 23 24 25 26 25 24 23 22 20 19 18 18 17 17 17 17 18 17 15 15 16 15 16 17 15 15 16 15 16 16 16 16 16 15 15 14 14 14 14 13 13 13 12 13 13 13 13 12 11 13 16
5 3 3 3 3 3 4 3 1 4 2 4 4 6 6 5 5 0 1 6 11 11 6 8 8 7 9 12 13 15 18 15 9 10 17 23 25 26 26 25 24 24 22 21 20 19 19 18 19 19 19 19 19 16 15 16 16 17 17 16 16 16 16 16 16 16 15 15 14 14 14 13 14 13 13 13 12 13 13 13 14 14 13 13 13 12
4 3 4 5 4 3 4 4 2 3 2 2 6 7 7 5 5 1 1 5 8 8 6 8 10 13 14 13 11 8 9 10 6 8 17 23 24 25 25 25 25 24 22 21 20 21 20 19 19 20 19 19 19 18 18 18 18 17 17 17 16 16 16 16 15 15 15 14 14 13 13 13 13 12 13 13 12 13 13 12 13 14 13 14 13 10
6 4 4 4 4 4 4 2 2 4 3 4 7 7 8 7 3 2 1 3 6 7 6 10 13 15 15 17 16 9 5 8 9 11 19 24 25 25 26 26 26 25 23 22 21 20 20 20 20 20 19 19 18 17 17 18 19 19 18 17 16 16 16 16 15 15 14 14 13 13 13 13 14 13 13 13 13 12 12 12 13 14 13 13 12 11
1 2 4 4 4 3 2 2 3 4 3 7 8 7 10 8 4 1 2 3 3 5 7 12 15 15 16 22 23 15 10 15 19 21 24 26 26 27 28 29 28 27 24 23 22 21 21 21 20 20 19 18 18 17 17 18 18 18 18 17 17 17 15 15 14 14 14 14 14 14 15 16 17 15 15 16 16 14 13 13 13 14 12 12 13 14
0 2 2 3 5 3 0 2 4 4 4 10 9 8 11 7 2 2 4 7 9 9 11 14 16 19 23 28 30 27 25 27 29 29 28 27 27 29 29 29 28 27 26 25 24 23 23 22 22 21 20 19 18 17 17 18 18 18 18 17 17 16 14 14 14 14 15 15 16 16 16 16 17 16 16 17 17 16 14 14 15 16 15 13 15 16
2 4 1 4 4 4 1 2 2 3 6 13 10 6 9 6 2 5 8 12 14 13 14 16 17 21 26 29 31 35 35 34 34 33 31 31 32 33 32 31 30 28 26 24 24 23 22 22 22 22 21 20 19 19 18 19 19 19 18 18 17 15 15 15 15 16 16 16 17 16 15 14 15 14 14 15 15 15 14 14 15 17 16 14 15 15
3 4 2 4 3 4 2 4 3 2 6 12 10 5 6 6 6 10 12 13 14 14 14 16 17 20 27 32 35 38 38 37 36 35 34 34 34 33 31 29 27 24 22 22 23 22 21 20 20 20 20 20 20 20 20 20 21 21 20 19 17 16 16 16 16 15 14 14 14 13 13 14 14 12 12 14 15 14 15 15 16 16 15 14 14 12
4 4 2 3 4 5 5 5 5 5 8 12 13 11 10 11 12 15 16 15 14 14 15 18 19 21 29 37 39 37 37 38 36 35 34 33 31 29 27 25 23 22 21 21 21 20 19 19 20 20 20 20 21 22 22 22 22 21 20 18 16 14 14 14 13 12 12 11 10 9 10 12 13 12 13 14 15 15 15 16 16 16 13 12 11 11
6 4 2 2 5 8 9 9 9 10 12 14 16 17 16 16 16 17 18 18 17 16 17 21 22 22 28 36 37 35 35 37 36 34 33 31 29 27 26 25 25 25 24 22 21 21 20 21 21 20 21 21 21 20 20 20 19 18 16 14 13 12 12 13 12 12 13 12 10 9 10 11 11 12 14 13 13 15 15 15 15 15 12 10 10 13
7 7 4 3 3 2 5 8 9 11 13 15 16 17 18 19 19 19 20 20 21 21 21 22 23 24 28 34 37 36 35 34 34 32 30 28 28 27 27 27 26 24 23 22 21 20 19 19 19 19 20 20 18 17 16 16 15 14 12 11 11 11 11 12 13 12 11 9 9 11 14 13 12 12 13 12 12 13 14 13 15 15 13 11 12 14
5 7 5 4 3 2 5 9 13 16 16 15 15 16 18 20 20 21 21 21 22 23 23 25 27 30 33 35 37 36 34 30 29 29 28 28 28 28 27 26 24 21 20 19 18 18 17 17 17 18 17 17 16 15 15 15 14 14 13 12 13 13 12 12 13 10 8 8 11 14 15 15 13 12 12 12 11 11 13 14 13 12 12 14 16 16
4 3 3 3 5 7 8 10 13 15 15 17 19 19 20 22 23 23 23 25 26 27 29 31 32 33 34 33 33 33 32 31 29 29 28 26 25 23 22 21 20 19 18 16 15 15 15 15 16 16 16 16 15 14 14 15 15 15 14 14 14 14 14 13 11 9 10 12 14 15 15 14 12 12 12 12 11 12 14 14 10 10 14 17 17 16
5 2 1 1 4 4 4 6 9 10 10 15 20 22 22 24 26 27 27 29 31 34 35 35 33 32 31 30 30 32 33 31 28 25 22 20 19 20 20 20 19 18 16 15 15 15 16 16 16 16 16 15 13 13 13 14 14 14 14 15 15 15 14 12 9 10 12 14 15 15 15 13 12 11 13 13 12 13 13 11 9 11 15 16 15 15
7 3 1 3 5 6 7 10 14 15 15 17 21 22 21 23 25 27 26 26 27 29 31 32 32 31 29 27 27 27 26 24 21 20 20 20 20 20 20 18 17 16 15 15 16 16 16 15 14 14 14 13 13 14 14 14 14 14 14 15 15 15 14 13 12 12 13 14 15 15 14 13 12 13 14 14 13 12 11 10 11 12 14 14 14 16
Wind_Direction
280 284 283 288 302 289 294 307 297 289 304 313 309 311 325 325 1 75 199 250 248 244 279 312 303 314 317 332 23 32 37 40 356 325 309 308 294 238 200 177 168 165 156 149 152 154 155 156 156 154 151 149 147 146 148 152 155 161 161 153 153 158 155 153 154 155 162 159 149 148 141 136 145 145 140 154 165 152 142 142 164 123 98 150 225 63
259 278 287 297 304 287 293 308 305 300 302 298 301 312 321 325 3 42 253 262 292 264 283 314 291 351 352 348 16 24 38 6 294 297 287 275 237 205 176 159 155 153 152 147 148 155 156 155 158 157 153 150 149 148 151 154 157 163 162 156 157 159 155 153 155 159 166 158 151 147 137 138 146 139 144 162 142 151 164 161 180 158 111 189 275 351
267 275 293 301 295 291 299 309 310 310 305 290 289 306 312 339 10 350 276 227 252 267 112 350 300 54 349 319 337 344 303 273 282 267 272 214 181 179 156 150 145 142 151 149 146 153 158 158 160 160 155 151 148 148 153 156 159 160 158 156 159 160 156 154 157 162 165 156 151 145 136 143 146 135 150 165 133 157 182 172 189 207 148 167 282 348
304 303 315 320 307 305 310 313 317 313 300 292 305 317 301 267 281 282 266 228 255 290 86 66 1 53 315 301 295 312 272 264 262 242 262 157 146 155 151 147 142 143 150 153 150 153 161 160 160 161 156 151 149 150 155 157 158 158 157 159 161 162 158 155 161 168 166 157 151 145 138 143 150 144 152 154 144 170 191 173 172 205 163 139 156 333
319 349 335 320 303 308 312 313 321 321 309 322 341 320 329 307 232 169 122 274 278 346 80 76 15 329 309 303 274 311 247 257 260 220 200 84 119 142 146 141 140 145 148 153 153 153 160 161 160 161 156 153 149 149 154 154 156 159 159 161 162 163 161 159 165 171 168 160 155 147 139 149 166 157 151 143 149 178 193 181 169 168 161 105 78 176
320 0 349 325 312 309 308 313 326 329 318 322 25 297 328 332 316 108 138 197 216 44 145 112 40 308 299 298 285 6 242 252 272 173 92 82 93 118 132 134 137 142 143 150 155 157 160 160 161 161 159 155 148 149 156 154 157 160 159 164 163 160 160 162 169 173 169 165 161 150 146 165 174 161 162 162 158 173 183 180 170 172 176 112 90 162
317 349 3 317 299 302 311 324 329 326 315 316 8 350 329 330 328 336 76 185 357 55 166 169 127 254 288 303 315 335 309 321 47 88 94 94 84 94 119 129 135 141 143 146 152 159 161 159 159 160 161 159 152 153 155 152 158 159 156 163 163 158 160 166 172 174 170 169 164 156 157 166 158 150 163 164 155 175 190 189 177 185 197 156 158 174
332 334 7 313 293 302 317 314 306 321 316 319 357 348 323 320 317 318 351 37 358 63 136 203 259 121 276 329 13 295 282 61 76 95 94 85 91 107 118 120 130 141 146 147 150 157 162 160 159 162 164 159 153 154 153 152 157 156 155 161 162 160 162 170 175 170 168 167 163 159 160 157 148 153 161 157 165 163 166 175 172 188 190 166 174 166
354 341 5 344 320 317 313 311 315 320 308 320 345 334 313 309 306 310 334 36 322 53 125 209 237 84 359 328 8 262 185 113 98 97 87 75 84 106 125 127 134 139 145 151 152 155 159 160 161 164 163 157 154 156 155 155 154 154 159 162 162 162 165 176 179 171 167 163 160 156 156 159 156 169 174 169 176 160 150 171 170 190 179 166 180 164
340 350 12 352 324 295 297 314 329 317 301 318 328 319 309 296 291 328 358 326 313 311 292 168 178 135 36 22 2 263 152 115 117 98 71 87 61 152 168 153 143 140 141 147 152 154 154 155 160 162 157 156 157 157 155 155 154 157 161 161 163 167 171 178 177 177 175 166 163 157 160 175 166 175 185 168 170 174 179 189 179 187 193 184 196 189
289 260 162 236 231 267 294 303 311 310 306 318 319 313 318 302 274 90 70 309 321 295 331 80 137 167 81 43 18 111 140 133 128 112 98 70 17 154 158 147 139 140 141 144 152 156 153 149 153 155 155 157 158 158 157 158 158 158 157 161 170 176 180 180 177 182 183 177 177 169 168 178 170 180 190 168 172 181 171 182 188 185 188 200 218 203
271 245 215 235 239 271 306 301 306 314 302 305 313 315 325 320 289 211 177 208 306 303 334 95 108 101 75 52 28 97 119 125 121 119 131 81 64 106 130 133 132 136 142 147 151 154 154 150 150 154 157 158 159 160 162 163 163 159 158 167 177 181 183 183 185 188 188 187 190 186 182 180 174 182 190 179 182 172 161 190 214 183 170 182 189 192
288 252 219 258 275 285 320 315 329 355 333 316 315 324 336 334 308 279 167 130 41 10 38 102 90 71 76 58 34 70 101 115 122 116 114 95 78 97 116 126 128 131 139 145 147 151 154 152 153 157 159 162 163 165 166 167 167 164 166 175 182 183 184 189 192 192 192 196 200 201 198 189 180 179 186 191 191 172 163 186 204 175 162 177 184 198
326 288 207 315 321 16 44 339 345 1 336 346 352 348 352 329 328 347 15 68 58 38 46 96 105 82 83 61 33 43 90 111 122 116 109 106 99 101 112 124 128 129 138 142 144 150 154 151 154 160 161 163 164 166 170 171 171 173 175 180 186 188 188 191 194 195 196 202 209 210 206 200 190 182 189 195 197 188 174 185 203 178 174 197 201 199
349 326 328 30 26 22 44 206 265 321 330 7 7 338 332 324 347 349 350 44 48 55 46 47 84 49 43 85 74 53 91 108 117 114 109 113 115 111 112 124 131 133 136 140 144 150 153 151 156 160 160 162 164 165 170 172 175 180 183 187 193 195 193 193 197 200 202 207 216 215 210 207 197 189 196 194 192 200 190 189 202 195 195 207 192 183
350 327 350 58 81 11 321 179 253 311 321 13 335 304 315 309 67 321 288 48 42 58 51 34 60 65 66 93 101 94 99 115 121 118 111 117 125 124 122 128 137 139 136 134 138 143 145 148 153 155 154 161 168 168 171 175 179 183 188 194 199 199 197 198 202 204 207 212 218 216 211 209 204 194 201 201 196 200 195 189 191 202 214 214 183 193
356 332 345 42 97 284 323 8 356 328 333 337 307 330 328 310 140 228 282 139 62 53 50 46 85 104 98 91 97 106 111 119 126 126 120 122 126 120 120 128 135 141 138 131 132 138 143 146 148 149 152 158 167 172 176 181 187 191 193 197 203 206 205 209 213 209 209 214 219 217 212 211 209 202 204 210 206 203 199 193 191 195 203 206 201 200
6 321 332 358 12 341 334 337 345 337 297 304 335 340 325 316 134 163 286 321 70 65 56 59 76 92 116 91 100 113 117 121 127 131 131 133 133 109 96 100 115 127 130 128 134 144 150 150 147 148 152 159 168 176 182 186 193 198 199 202 210 216 216 217 218 212 211 218 223 221 217 214 212 208 208 216 214 210 208 202 198 199 199 206 211 208
36 323 333 12 3 343 337 337 4 30 241 270 334 334 322 339 5 316 321 346 52 88 92 78 72 69 66 77 100 110 119 130 129 132 134 133 135 121 100 95 109 117 122 128 140 151 156 154 150 149 154 164 169 172 178 186 194 197 199 205 212 217 217 217 217 216 218 224 225 222 219 218 218 212 212 218 213 208 212 210 206 206 205 212 220 219
50 290 310 20 9 345 348 15 16 11 350 303 328 338 338 352 337 329 341 342 338 108 114 98 74 54 51 61 93 110 125 138 135 135 142 138 128 116 112 130 139 135 135 140 144 149 151 148 146 149 154 163 167 168 174 181 190 194 195 201 209 211 214 219 221 225 229 228 224 221 221 222 222 218 218 219 211 204 210 212 213 214 212 219 227 227
360 305 316 9 5 341 347 8 356 6 10 357 358 357 345 349 351 338 360 74 290 300 103 103 90 59 28 32 82 108 123 133 134 136 147 138 125 120 128 137 137 135 144 150 147 146 148 146 148 149 145 141 138 155 170 174 185 199 198 200 209 208 209 214 219 224 227 224 220 221 224 226 226 224 224 221 212 211 213 212 219 221 216 221 234 239
356 330 326 338 344 348 349 322 345 5 6 3 15 357 332 342 8 343 19 74 54 360 50 104 102 80 328 9 84 100 109 115 122 128 128 116 115 122 133 133 127 121 131 147 149 148 152 151 153 151 143 140 138 149 169 170 176 194 198 199 207 208 206 207 211 215 218 218 219 220 222 225 228 229 230 225 217 220 225 226 232 237 237 246 253 250
16 337 330 331 337 346 315 274 349 355 352 12 52 26 329 320 352 32 341 7 48 81 135 115 97 91 77 86 101 109 114 115 118 123 120 111 116 126 126 124 127 123 131 143 139 136 142 146 150 147 137 140 146 154 169 171 166 175 189 195 197 201 204 204 205 210 214 216 215 213 213 216 223 229 228 223 223 231 241 244 245 245 247 254 257 254
12 340 325 329 326 310 301 357 358 333 352 26 30 58 40 318 324 6 301 319 28 57 159 110 87 100 110 107 117 116 117 122 122 119 116 114 118 122 117 117 120 121 132 145 137 131 135 138 144 141 130 133 144 149 156 159 155 159 175 182 178 181 190 194 197 201 206 208 204 205 210 211 219 226 220 217 227 237 247 250 244 237 233 238 247 253
344 349 330 335 341 322 335 24 345 327 19 28 4 48 60 344 336 346 291 268 27 4 351 88 98 111 121 125 123 116 111 114 115 114 114 116 117 114 114 116 115 116 126 136 135 133 135 137 136 133 131 137 143 143 142 143 146 152 157 157 158 167 174 182 191 191 194 200 197 200 208 207 215 225 221 220 227 229 233 235 233 229 229 244 247 239
328 13 340 342 353 356 350 308 288 346 19 7 360 32 51 25 4 354 310 330 33 22 24 85 110 113 124 124 117 117 114 110 110 111 111 112 113 113 113 114 113 117 122 123 122 125 130 134 130 125 128 134 136 137 137 136 139 141 139 135 142 153 153 153 168 174 177 186 185 188 197 197 202 212 206 199 196 186 186 192 200 209 210 240 264 207
338 326 300 333 317 286 231 251 272 53 36 1 12 22 32 37 22 349 323 12 18 34 57 92 118 123 128 124 116 117 117 117 118 116 115 114 113 114 114 114 115 117 119 118 116 118 121 121 119 119 120 120 122 122 122 124 126 124 124 125 125 130 132 135 146 157 158 156 149 143 145 146 149 156 144 126 123 129 134 139 140 127 143 135 67 90
333 306 338 294 285 270 241 255 12 69 48 6 23 28 31 37 28 13 17 2 328 355 79 102 119 123 125 121 119 121 120 122 123 118 118 118 115 115 115 114 114 113 112 110 110 113 114 108 108 112 112 112 116 114 110 111 113 111 113 114 109 105 109 116 117 116 119 122 117 109 106 107 107 103 100 99 102 107 109 116 114 87 78 84 81 89
313 308 336 302 295 312 305 306 40 64 52 34 33 31 31 35 37 29 5 351 350 30 120 117 109 111 119 117 114 117 115 115 115 115 119 118 114 113 112 111 112 111 109 107 106 108 107 101 101 103 102 105 108 107 103 101 101 102 104 106 103 96 93 98 99 97 100 102 99 96 100 108 106 96 94 98 97 95 94 89 87 86 92 87 86 97
326 317 329 316 316 323 317 357 45 36 39 53 39 30 36 38 37 20 349 15 52 88 111 106 98 98 108 111 111 116 115 111 112 114 118 118 114 111 111 111 109 107 107 105 102 101 97 94 95 94 94 98 98 95 95 95 91 90 91 91 89 84 81 85 88 88 89 88 83 83 90 98 100 95 92 87 77 73 69 51 32 16 31 71 78 114
328 323 330 319 316 317 317 39 76 55 42 54 35 26 39 44 37 12 349 23 63 95 103 105 101 93 99 111 115 123 123 117 116 118 118 118 117 116 114 113 110 105 106 106 103 100 95 92 92 89 86 90 92 91 91 90 86 82 80 79 78 77 76 75 76 76 76 76 73 67 61 62 68 74 77 65 53 51 46 39 41 50 60 65 60 78
290 308 320 309 313 320 315 26 109 129 92 61 33 18 30 47 50 18 7 35 42 71 99 107 102 100 116 116 115 122 125 123 124 126 124 118 114 114 115 115 113 107 103 102 101 98 93 87 87 85 80 81 85 86 86 86 84 81 79 79 79 79 81 78 76 76 74 72 68 60 58 61 62 63 63 56 55 60 61 61 65 69 65 58 57 60
307 307 308 311 324 310 305 337 65 143 125 69 25 5 17 45 63 49 33 48 50 31 54 95 102 110 110 92 99 113 115 114 116 120 123 121 115 111 110 108 105 99 93 90 92 94 90 83 81 82 77 76 79 82 83 83 82 80 78 79 79 79 80 78 76 75 75 76 74 70 72 76 75 74 71 69 72 77 78 77 73 69 63 56 55 54
297 293 302 314 306 299 306 313 298 265 292 55 9 357 9 42 63 62 39 38 46 30 36 84 82 88 90 82 100 101 81 86 92 94 108 116 117 112 105 100 96 92 88 86 86 89 90 86 84 86 84 78 75 80 84 82 85 88 83 78 76 75 75 74 73 72 72 73 74 76 80 81 80 81 82 80 79 73 69 69 65 62 61 57 53 49
294 292 309 313 299 301 304 293 281 315 31 123 34 12 23 51 68 72 53 35 33 33 62 80 72 79 93 95 97 95 87 89 88 83 93 105 107 104 99 94 93 91 89 89 89 88 91 89 85 89 94 91 85 85 83 81 88 92 88 80 76 75 74 74 74 73 72 71 71 70 72 72 70 69 68 66 64 61 61 59 56 53 49 45 45 42
290 296 299 300 301 292 292 312 351 61 82 89 60 27 25 48 64 65 49 29 20 22 71 91 79 81 100 99 96 101 102 96 89 88 98 102 99 98 96 93 92 90 89 93 93 88 87 84 80 85 91 92 90 86 81 82 86 83 79 78 76 74 74 74 73 72 71 71 69 68 67 67 66 64 61 58 55 54 52 48 49 53 46 36 33 32
280 295 301 291 301 299 301 347 94 126 75 29 43 33 23 45 62 55 51 32 17 15 74 103 84 71 94 101 103 106 104 96 85 86 98 100 95 96 97 95 95 94 91 94 94 89 86 81 77 78 80 78 76 70 69 79 85 79 75 75 74 72 72 71 69 69 68 67 65 65 64 61 59 59 56 53 51 48 44 38 36 40 39 34 26 23
276 285 299 291 297 314 307 304 163 142 99 15 26 29 23 64 89 117 149 55 21 14 63 112 112 98 94 95 100 105 102 94 78 81 95 98 98 98 98 96 95 94 92 93 92 89 87 83 78 78 78 76 72 66 67 76 80 77 74 72 70 70 69 67 65 64 63 63 60 60 61 58 56 52 48 46 44 41 39 31 25 24 27 34 32 17
311 296 287 286 282 291 291 290 337 76 96 1 4 8 2 44 84 215 192 62 16 10 68 113 114 102 99 100 100 103 102 95 89 98 101 101 100 98 97 96 93 91 90 90 90 89 88 86 83 81 80 78 74 73 76 78 77 75 74 71 69 67 65 63 63 61 59 59 56 52 52 53 53 50 44 39 35 34 32 24 18 17 18 28 31 9
8 329 294 284 275 283 289 301 46 81 82 352 350 1 354 354 359 258 181 56 357 359 72 104 104 100 104 106 96 74 66 98 110 111 105 103 100 95 92 94 94 92 88 86 86 87 87 86 84 81 79 77 74 74 76 77 75 73 71 69 67 64 62 60 60 59 57 56 53 49 47 46 47 46 39 32 32 33 29 21 13 11 12 16 14 360
26 297 282 281 277 290 325 31 75 98 47 351 348 355 343 323 293 305 65 76 19 20 83 101 105 107 106 104 99 86 79 100 108 106 103 101 97 89 87 88 88 86 83 82 82 84 82 81 79 78 78 78 77 76 76 76 75 72 69 68 66 62 60 59 58 57 55 52 48 45 42 37 36 38 33 28 30 30 26 23 17 11 12 12 7 4
325 282 292 314 312 314 14 96 108 115 23 350 340 351 356 336 255 62 68 102 92 77 87 95 102 110 108 103 103 103 103 107 109 104 101 100 97 92 91 90 86 84 82 80 79 79 77 77 77 77 77 76 76 75 74 74 73 71 68 66 63 60 58 57 56 53 50 48 43 41 38 31 27 28 24 20 23 24 18 14 11 9 10 7 1 359
1 303 355 40 344 322 8 69 103 122 14 356 346 2 18 14 96 88 87 102 96 86 90 93 99 111 111 106 105 107 110 111 109 105 102 101 101 99 99 97 94 92 92 88 83 81 81 81 83 83 82 80 76 73 71 71 71 68 64 61 57 53 54 55 53 48 42 38 36 34 33 31 27 22 15 12 11 9 5 360 358 359 360 355 350 350
21 329 11 54 353 322 11 53 64 83 26 19 23 49 42 33 74 97 100 100 94 92 98 101 103 110 115 113 110 109 109 107 107 108 106 103 102 101 100 99 97 97 101 101 98 95 92 90 88 86 84 82 78 74 70 68 66 61 57 53 47 43 44 45 43 42 39 35 35 34 29 26 20 9 7 11 6 358 357 355 352 352 351 351 352 354
39 22 18 53 48 47 60 75 79 66 48 46 52 59 55 51 70 91 97 94 93 97 104 109 110 112 117 118 114 110 109 107 107 107 105 103 101 99 97 95 94 93 96 99 98 95 94 93 90 85 82 80 79 77 73 68 64 59 55 52 48 44 44 42 37 38 39 29 23 28 26 18 11 5 7 11 7 2 360 357 355 354 354 356 359 357
55 29 353 78 96 87 74 68 69 63 59 64 66 63 64 68 74 84 91 93 99 106 110 112 113 112 115 118 114 108 108 109 108 106 105 104 103 101 99 98 97 96 96 97 97 95 94 94 91 86 82 78 76 76 75 71 68 64 59 58 54 46 45 46 41 38 36 23 7 7 15 15 16 15 9 3 6 7 3 2 2 359 353 350 349 348
49 8 9 107 150 140 73 63 67 68 65 68 72 70 72 76 79 86 94 98 103 108 111 114 116 117 117 118 116 111 110 111 110 109 108 108 107 107 106 103 101 99 98 98 99 97 96 94 89 83 79 74 69 67 66 65 63 60 55 52 46 38 40 49 46 36 31 25 2 352 359 7 14 13 3 358 6 5 358 2 5 355 348 349 344 342
21 353 8 81 93 86 95 92 85 79 71 69 73 77 81 84 87 91 97 101 106 112 118 121 122 121 118 116 115 114 113 113 113 112 111 111 112 112 109 105 101 97 95 96 97 95 92 88 83 79 75 71 66 62 57 53 50 45 38 33 33 30 30 39 41 24 2 353 346 348 1 11 11 9 6 4 7 4 357 0 358 346 351 3 358 351
339 355 23 80 94 89 101 108 98 84 74 73 79 85 89 94 95 95 98 104 110 115 119 119 118 118 117 116 116 116 115 114 114 114 113 111 110 108 105 101 96 90 88 90 91 89 85 81 78 77 73 69 65 60 56 50 43 37 28 22 20 17 17 29 37 13 347 348 356 5 19 23 15 15 17 10 9 13 6 359 350 341 353 6 7 2
3 49 27 104 129 105 89 104 104 95 85 86 91 95 97 100 101 100 101 104 110 115 117 117 116 115 116 117 117 116 114 113 110 109 108 107 105 104 101 96 92 88 86 87 87 85 83 81 78 75 71 66 59 53 50 46 41 34 24 16 11 9 11 21 22 2 356 7 20 26 29 25 18 20 21 15 18 25 17 4 357 1 5 11 13 12
29 42 63 98 107 99 91 96 100 103 105 104 103 102 101 103 104 104 104 105 109 115 119 118 116 114 112 111 111 111 112 113 111 110 109 107 104 101 98 95 94 94 93 93 92 90 87 85 82 77 72 64 53 44 39 35 34 32 24 17 12 10 14 17 14 11 19 32 36 32 27 22 18 21 26 25 28 34 33 18 6 12 21 21 12 12
Height
1469 1472 1470 1467 1463 1462 1461 1455 1456 1457 1453 1451 1449 1449 1450 1453 1457 1460 1459 1452 1449 1454 1453 1451 1451 1449 1447 1443 1442 1445 1446 1447 1449 1449 1446 1447 1452 1455 1455 1455 1455 1455 1455 1456 1458 1461 1464 1468 1473 1478 1481 1482 1485 1489 1493 1496 1498 1500 1502 1503 1506 1508 1511 1513 1515 1516 1518 1519 1520 1521 1523 1524 1526 1527 1528 1529 1529 1530 1531 1531 1531 1531 1532 1533 1533 1533
1472 1477 1471 1461 1458 1458 1456 1452 1451 1452 1452 1452 1449 1450 1451 1453 1457 1461 1461 1452 1448 1453 1454 1451 1452 1453 1451 1448 1446 1447 1448 1449 1450 1451 1449 1451 1456 1455 1453 1452 1452 1454 1455 1456 1459 1462 1465 1469 1474 1478 1481 1483 1486 1488 1493 1497 1499 1501 1502 1504 1506 1508 1511 1513 1515 1516 1518 1519 1520 1521 1522 1525 1526 1527 1528 1528 1529 1530 1530 1531 1531 1531 1533 1533 1533 1533
1477 1479 1466 1454 1454 1455 1453 1451 1450 1451 1452 1451 1446 1449 1454 1457 1462 1462 1459 1453 1450 1453 1455 1452 1454 1457 1454 1450 1449 1449 1449 1449 1449 1450 1451 1454 1456 1454 1452 1451 1450 1453 1455 1456 1458 1461 1465 1469 1474 1478 1481 1484 1488 1490 1493 1497 1499 1501 1503 1504 1506 1508 1511 1513 1515 1517 1518 1519 1520 1521 1523 1525 1526 1527 1528 1528 1529 1530 1530 1531 1531 1531 1532 1532 1533 1533
1477 1472 1457 1451 1451 1453 1453 1451 1450 1451 1452 1451 1447 1449 1454 1459 1467 1468 1459 1455 1451 1451 1454 1454 1455 1457 1455 1452 1450 1450 1450 1449 1450 1450 1451 1453 1453 1452 1451 1450 1449 1451 1453 1455 1458 1461 1465 1468 1473 1478 1481 1484 1488 1491 1494 1497 1499 1501 1503 1505 1506 1509 1511 1513 1515 1516 1517 1519 1520 1522 1523 1525 1526 1527 1527 1528 1529 1529 1529 1531 1531 1531 1532 1532 1533 1533
1466 1458 1451 1451 1451 1452 1455 1452 1451 1453 1451 1448 1447 1450 1451 1452 1460 1463 1460 1459 1456 1454 1454 1456 1463 1462 1456 1457 1453 1450 1451 1450 1449 1449 1448 1450 1451 1451 1451 1450 1450 1451 1453 1456 1458 1461 1464 1467 1472 1477 1481 1484 1488 1491 1495 1498 1500 1502 1503 1505 1507 1509 1511 1513 1514 1515 1517 1519 1520 1521 1523 1525 1526 1526 1527 1528 1529 1529 1529 1530 1531 1531 1532 1532 1533 1534
1457 1453 1452 1452 1453 1452 1455 1452 1451 1454 1452 1448 1446 1446 1445 1445 1447 1450 1456 1461 1463 1463 1457 1458 1472 1472 1459 1458 1456 1451 1452 1451 1448 1447 1447 1448 1449 1450 1450 1450 1450 1452 1454 1457 1459 1462 1464 1467 1471 1476 1480 1483 1486 1490 1494 1498 1501 1502 1503 1505 1507 1509 1511 1513 1514 1515 1517 1519 1520 1521 1522 1524 1525 1526 1527 1527 1528 1529 1529 1529 1530 1531 1532 1532 1533 1534
1454 1452 1451 1453 1455 1453 1456 1456 1451 1451 1455 1452 1445 1441 1442 1442 1442 1443 1449 1458 1463 1464 1458 1456 1470 1474 1464 1460 1457 1454 1454 1452 1449 1449 1448 1449 1449 1450 1451 1451 1451 1453 1456 1458 1460 1463 1466 1468 1471 1476 1479 1482 1485 1489 1494 1498 1500 1502 1504 1505 1507 1509 1511 1513 1514 1516 1518 1519 1520 1522 1523 1524 1525 1526 1527 1528 1528 1529 1529 1529 1529 1530 1531 1532 1533 1534
1452 1453 1453 1453 1453 1453 1459 1460 1451 1448 1455 1452 1442 1440 1442 1441 1442 1441 1443 1455 1461 1460 1460 1457 1460 1468 1469 1462 1458 1456 1456 1455 1454 1452 1450 1450 1450 1451 1452 1453 1454 1455 1457 1460 1462 1465 1468 1470 1473 1477 1480 1483 1486 1490 1494 1497 1500 1503 1504 1505 1507 1509 1511 1512 1514 1517 1518 1519 1521 1522 1523 1524 1526 1527 1528 1528 1529 1529 1529 1529 1529 1530 1531 1532 1533 1534
1451 1455 1455 1453 1454 1454 1455 1453 1446 1447 1453 1448 1440 1441 1441 1439 1440 1438 1441 1452 1455 1458 1466 1463 1457 1466 1472 1463 1458 1458 1458 1459 1458 1454 1452 1451 1452 1453 1454 1455 1456 1457 1459 1461 1464 1467 1470 1473 1475 1478 1482 1485 1488 1491 1494 1496 1499 1502 1504 1505 1507 1510 1511 1512 1515 1517 1518 1520 1522 1523 1524 1525 1526 1527 1528 1528 1529 1529 1529 1529 1529 1530 1531 1532 1533 1534
1452 1454 1453 1453 1455 1454 1449 1445 1443 1446 1449 1445 1441 1441 1438 1437 1437 1439 1447 1450 1449 1456 1463 1459 1457 1466 1473 1467 1461 1462 1461 1461 1459 1455 1453 1453 1454 1455 1455 1458 1459 1460 1463 1465 1467 1470 1472 1475 1478 1480 1483 1486 1488 1490 1494 1497 1499 1501 1503 1506 1507 1509 1511 1513 1515 1517 1518 1520 1522 1523 1524 1525 1526 1527 1527 1528 1529 1529 1529 1529 1529 1530 1531 1532 1533 1534
1451 1451 1451 1451 1452 1449 1444 1443 1442 1443 1444 1442 1442 1441 1439 1437 1434 1440 1450 1449 1454 1462 1456 1452 1454 1459 1470 1471 1464 1462 1461 1459 1458 1457 1457 1456 1454 1454 1456 1459 1461 1463 1466 1468 1470 1473 1475 1478 1480 1483 1485 1486 1489 1490 1493 1496 1499 1501 1503 1505 1507 1509 1511 1513 1515 1517 1518 1520 1521 1522 1524 1525 1526 1526 1527 1528 1528 1529 1529 1529 1529 1530 1531 1532 1533 1533
1450 1452 1451 1448 1446 1444 1444 1444 1441 1440 1441 1442 1444 1443 1445 1448 1444 1445 1450 1452 1464 1466 1452 1449 1450 1452 1467 1473 1463 1460 1459 1457 1457 1458 1459 1458 1455 1455 1457 1461 1463 1465 1467 1469 1472 1474 1477 1479 1481 1484 1486 1487 1489 1491 1493 1496 1499 1501 1503 1505 1507 1509 1511 1514 1516 1517 1519 1520 1522 1523 1523 1524 1525 1526 1527 1528 1528 1528 1529 1529 1529 1530 1531 1532 1533 1534
1449 1449 1447 1446 1444 1441 1446 1450 1444 1442 1442 1442 1444 1445 1455 1464 1461 1456 1452 1456 1465 1459 1446 1446 1448 1455 1468 1470 1463 1461 1458 1457 1457 1456 1458 1459 1458 1458 1460 1463 1465 1467 1469 1471 1474 1477 1479 1481 1483 1485 1488 1489 1490 1492 1494 1497 1499 1501 1503 1505 1507 1510 1512 1514 1516 1518 1519 1520 1522 1523 1523 1524 1524 1526 1527 1527 1527 1528 1528 1529 1529 1530 1531 1532 1533 1534
1454 1449 1445 1449 1451 1444 1446 1455 1456 1451 1446 1446 1448 1454 1466 1471 1472 1466 1455 1458 1464 1455 1444 1439 1445 1461 1471 1468 1466 1463 1459 1457 1457 1457 1459 1461 1462 1463 1464 1466 1468 1469 1471 1474 1476 1479 1481 1483 1485 1487 1489 1491 1491 1493 1495 1497 1500 1502 1504 1506 1508 1510 1512 1514 1516 1517 1519 1520 1521 1522 1523 1524 1524 1525 1527 1527 1527 1528 1528 1529 1529 1530 1531 1532 1533 1534
1465 1467 1452 1450 1457 1452 1448 1452 1455 1450 1447 1450 1448 1453 1464 1465 1472 1474 1467 1470 1466 1451 1444 1440 1450 1468 1472 1470 1468 1463 1460 1459 1459 1460 1461 1463 1465 1465 1467 1468 1470 1471 1473 1476 1477 1480 1483 1484 1486 1488 1489 1491 1492 1494 1496 1498 1501 1502 1504 1506 1507 1509 1511 1513 1515 1517 1518 1519 1520 1522 1523 1523 1524 1525 1526 1527 1527 1528 1528 1529 1530 1530 1531 1532 1533 1534
1466 1469 1450 1444 1452 1452 1449 1446 1444 1445 1450 1452 1446 1451 1458 1454 1461 1469 1464 1462 1455 1450 1454 1455 1461 1467 1464 1466 1466 1464 1464 1462 1462 1463 1463 1465 1467 1467 1470 1470 1471 1473 1474 1477 1478 1480 1483 1485 1487 1488 1490 1492 1493 1495 1497 1499 1501 1503 1504 1506 1507 1509 1512 1513 1515 1516 1517 1518 1520 1521 1522 1523 1524 1524 1525 1526 1526 1527 1528 1529 1530 1531 1531 1532 1533 1534
1475 1467 1447 1445 1448 1445 1446 1443 1440 1446 1452 1452 1449 1451 1446 1437 1447 1462 1457 1444 1443 1459 1469 1464 1466 1468 1465 1467 1467 1465 1467 1464 1465 1467 1465 1467 1468 1468 1471 1472 1474 1476 1476 1478 1479 1480 1484 1486 1488 1489 1490 1492 1494 1495 1498 1500 1502 1504 1505 1507 1508 1510 1511 1513 1514 1515 1516 1517 1520 1521 1522 1523 1524 1524 1525 1525 1526 1527 1528 1529 1530 1531 1532 1533 1533 1534
1476 1470 1450 1446 1451 1444 1441 1441 1439 1441 1445 1451 1452 1445 1438 1436 1443 1454 1457 1449 1449 1467 1474 1464 1465 1469 1469 1472 1469 1468 1471 1469 1468 1469 1468 1470 1470 1470 1471 1472 1475 1477 1478 1480 1480 1482 1485 1487 1488 1490 1491 1493 1494 1496 1498 1500 1503 1504 1506 1508 1508 1510 1511 1512 1513 1514 1515 1517 1520 1521 1522 1523 1524 1524 1525 1525 1526 1527 1527 1528 1529 1530 1532 1533 1533 1533
1467 1475 1459 1446 1452 1448 1439 1442 1446 1443 1440 1446 1447 1438 1441 1454 1456 1452 1456 1461 1461 1468 1474 1468 1464 1467 1468 1470 1471 1471 1473 1472 1471 1471 1472 1472 1472 1473 1474 1473 1475 1477 1479 1481 1482 1485 1486 1487 1489 1491 1492 1494 1496 1498 1500 1501 1503 1504 1506 1508 1509 1510 1511 1512 1513 1513 1514 1517 1519 1521 1522 1523 1523 1524 1524 1525 1526 1526 1527 1528 1529 1530 1532 1532 1532 1532
1462 1475 1467 1449 1449 1449 1444 1448 1454 1452 1443 1441 1443 1439 1441 1450 1455 1449 1448 1459 1464 1463 1469 1471 1470 1473 1472 1467 1468 1470 1471 1472 1473 1473 1474 1474 1475 1476 1475 1474 1475 1477 1479 1481 1484 1486 1487 1488 1490 1491 1493 1495 1497 1500 1501 1502 1503 1505 1507 1508 1509 1510 1511 1512 1513 1513 1515 1517 1519 1520 1521 1522 1523 1524 1524 1524 1524 1525 1526 1528 1529 1529 1530 1531 1531 1531
1457 1467 1469 1457 1450 1452 1455 1455 1455 1453 1449 1448 1450 1451 1449 1446 1448 1448 1444 1453 1462 1458 1460 1471 1480 1482 1472 1464 1465 1467 1468 1470 1472 1473 1475 1475 1476 1477 1476 1475 1476 1479 1480 1482 1484 1486 1488 1489 1490 1492 1495 1497 1499 1500 1501 1502 1503 1504 1506 1508 1508 1509 1510 1512 1513 1514 1515 1517 1519 1520 1521 1522 1524 1525 1525 1524 1524 1525 1526 1527 1527 1528 1529 1530 1530 1530
1459 1464 1468 1464 1458 1457 1457 1452 1448 1448 1448 1450 1454 1457 1456 1451 1454 1461 1457 1450 1453 1458 1461 1468 1483 1486 1471 1464 1467 1467 1467 1469 1470 1472 1473 1474 1477 1478 1478 1478 1478 1480 1481 1483 1485 1487 1488 1490 1491 1493 1495 1497 1499 1499 1500 1502 1502 1503 1506 1507 1508 1509 1510 1512 1513 1514 1515 1517 1519 1520 1521 1522 1524 1525 1525 1524 1524 1525 1526 1526 1527 1527 1527 1528 1528 1528
1458 1464 1468 1467 1461 1456 1452 1446 1446 1446 1442 1444 1450 1453 1455 1452 1453 1466 1469 1454 1450 1461 1462 1460 1474 1482 1468 1463 1468 1468 1469 1470 1472 1472 1473 1476 1478 1477 1479 1480 1480 1482 1483 1483 1486 1487 1489 1491 1491 1493 1495 1497 1499 1499 1500 1501 1502 1504 1506 1507 1508 1509 1510 1511 1512 1513 1515 1517 1519 1520 1520 1521 1522 1525 1526 1526 1526 1526 1526 1526 1527 1527 1526 1526 1527 1526
1459 1468 1471 1468 1459 1451 1447 1445 1445 1443 1442 1447 1450 1450 1457 1457 1448 1451 1457 1453 1453 1460 1457 1459 1476 1480 1468 1464 1467 1468 1469 1471 1473 1474 1475 1478 1479 1479 1481 1481 1482 1484 1484 1485 1487 1489 1491 1492 1493 1494 1495 1497 1500 1501 1501 1502 1504 1505 1506 1507 1508 1509 1510 1511 1512 1513 1515 1516 1519 1520 1520 1521 1522 1525 1527 1527 1526 1526 1526 1526 1526 1525 1525 1526 1526 1525
1464 1472 1473 1474 1474 1469 1463 1460 1457 1448 1446 1453 1453 1453 1462 1462 1452 1449 1446 1446 1456 1458 1452 1462 1479 1478 1468 1465 1465 1468 1471 1471 1473 1476 1477 1478 1479 1481 1483 1483 1484 1486 1486 1488 1490 1490 1492 1494 1495 1496 1497 1499 1500 1502 1503 1504 1505 1505 1505 1507 1508 1508 1510 1511 1512 1514 1515 1517 1519 1520 1521 1522 1523 1524 1525 1526 1526 1525 1525 1525 1524 1524 1524 1525 1525 1525
1464 1469 1471 1478 1487 1490 1486 1481 1473 1461 1456 1457 1453 1453 1459 1459 1459 1462 1455 1453 1463 1459 1451 1462 1476 1476 1469 1466 1467 1469 1472 1473 1475 1476 1478 1479 1480 1482 1483 1484 1486 1487 1488 1491 1492 1493 1494 1495 1496 1497 1499 1500 1501 1503 1504 1505 1506 1505 1505 1506 1508 1509 1511 1512 1513 1515 1516 1517 1519 1520 1521 1522 1523 1523 1523 1524 1524 1524 1523 1523 1524 1523 1524 1524 1524 1524
1461 1464 1466 1472 1478 1481 1481 1477 1466 1460 1463 1463 1457 1455 1458 1457 1459 1462 1461 1465 1467 1462 1460 1465 1469 1474 1473 1468 1470 1472 1472 1475 1477 1477 1479 1480 1482 1484 1485 1486 1488 1489 1490 1493 1493 1495 1496 1496 1497 1499 1501 1502 1502 1503 1504 1506 1507 1507 1507 1508 1509 1510 1512 1513 1514 1515 1516 1517 1519 1520 1521 1521 1522 1523 1522 1523 1523 1523 1524 1523 1524 1523 1524 1524 1524 1524
1464 1465 1463 1466 1467 1463 1463 1462 1456 1455 1461 1462 1460 1461 1461 1460 1460 1462 1465 1467 1464 1467 1475 1470 1464 1473 1475 1469 1471 1473 1473 1475 1477 1478 1481 1482 1483 1486 1487 1488 1490 1491 1493 1494 1496 1497 1498 1498 1500 1501 1502 1504 1504 1505 1506 1507 1508 1509 1509 1511 1511 1512 1513 1514 1515 1516 1517 1518 1519 1520 1521 1521 1522 1522 1522 1523 1523 1523 1524 1523 1524 1523 1524 1524 1524 1524
1464 1467 1461 1460 1461 1455 1451 1453 1453 1454 1457 1459 1461 1463 1462 1462 1465 1467 1467 1463 1461 1469 1475 1468 1466 1474 1473 1469 1472 1473 1473 1476 1478 1479 1482 1483 1485 1488 1490 1492 1493 1494 1496 1497 1498 1499 1500 1501 1502 1503 1505 1506 1506 1507 1507 1508 1510 1510 1511 1512 1513 1514 1514 1515 1516 1517 1518 1519 1519 1520 1521 1522 1522 1523 1523 1523 1523 1523 1523 1523 1524 1524 1524 1524 1524 1524
1463 1466 1459 1457 1460 1456 1451 1453 1457 1459 1460 1461 1463 1463 1463 1466 1469 1469 1468 1464 1463 1468 1467 1465 1470 1473 1470 1471 1474 1475 1476 1478 1479 1482 1483 1484 1487 1490 1492 1494 1495 1496 1498 1499 1500 1501 1502 1503 1504 1505 1507 1508 1509 1509 1509 1511 1512 1513 1514 1515 1516 1516 1517 1517 1518 1518 1520 1520 1521 1521 1522 1522 1523 1523 1523 1523 1523 1523 1523 1523 1524 1524 1524 1525 1524 1524
1463 1465 1459 1457 1461 1459 1452 1453 1462 1466 1466 1467 1467 1465 1465 1470 1473 1472 1470 1467 1467 1469 1467 1467 1475 1477 1473 1472 1474 1477 1479 1480 1482 1485 1486 1487 1490 1491 1494 1496 1497 1499 1500 1501 1503 1503 1504 1506 1507 1508 1510 1510 1511 1511 1512 1514 1515 1515 1517 1517 1518 1519 1519 1519 1520 1520 1521 1521 1522 1522 1522 1523 1523 1523 1523 1523 1523 1524 1524 1524 1524 1525 1525 1525 1524 1524
1461 1463 1460 1459 1467 1465 1453 1453 1462 1465 1465 1470 1474 1471 1469 1474 1478 1477 1474 1473 1475 1475 1473 1474 1480 1481 1476 1473 1475 1479 1480 1481 1485 1487 1488 1491 1493 1494 1496 1498 1500 1502 1503 1504 1505 1506 1507 1509 1510 1511 1512 1513 1513 1514 1515 1516 1517 1518 1519 1519 1520 1521 1521 1521 1521 1522 1522 1523 1523 1523 1523 1523 1524 1523 1524 1524 1524 1525 1525 1525 1525 1525 1525 1525 1524 1524
1459 1463 1462 1462 1472 1470 1454 1452 1459 1462 1469 1480 1482 1477 1474 1476 1480 1478 1476 1477 1479 1479 1480 1482 1482 1480 1478 1477 1479 1481 1480 1483 1487 1490 1491 1494 1496 1498 1499 1501 1502 1504 1505 1507 1508 1509 1510 1512 1513 1514 1515 1515 1516 1517 1518 1519 1519 1520 1521 1521 1522 1522 1522 1522 1523 1523 1524 1524 1524 1525 1524 1525 1525 1525 1525 1525 1525 1526 1526 1526 1526 1526 1526 1525 1525 1524
1460 1462 1462 1463 1471 1471 1458 1451 1456 1467 1483 1491 1485 1477 1475 1477 1480 1482 1481 1480 1478 1478 1480 1482 1481 1480 1482 1483 1484 1485 1486 1487 1490 1493 1495 1496 1498 1501 1501 1503 1505 1507 1509 1510 1511 1512 1513 1514 1516 1517 1517 1518 1519 1519 1520 1520 1520 1522 1522 1523 1523 1523 1524 1524 1524 1525 1525 1525 1525 1526 1526 1526 1526 1526 1526 1525 1525 1525 1525 1525 1525 1525 1525 1525 1525 1524
1461 1461 1463 1464 1467 1468 1459 1453 1466 1485 1493 1488 1480 1476 1476 1477 1479 1481 1481 1479 1478 1478 1479 1483 1485 1485 1485 1486 1487 1488 1491 1491 1493 1497 1499 1500 1502 1503 1504 1506 1508 1509 1512 1513 1514 1515 1516 1517 1518 1518 1519 1520 1521 1521 1522 1522 1523 1523 1524 1524 1525 1526 1526 1526 1527 1527 1527 1527 1527 1527 1527 1527 1527 1526 1526 1526 1526 1525 1525 1525 1525 1525 1525 1525 1524 1524
1462 1462 1464 1465 1466 1468 1463 1463 1480 1493 1486 1479 1481 1480 1477 1479 1482 1484 1485 1483 1481 1479 1480 1485 1489 1488 1487 1489 1491 1492 1493 1494 1496 1501 1503 1503 1504 1505 1507 1509 1511 1512 1515 1516 1517 1517 1518 1519 1520 1521 1522 1523 1523 1524 1525 1525 1526 1526 1526 1526 1527 1527 1528 1528 1528 1529 1529 1529 1529 1529 1529 1528 1528 1527 1527 1527 1526 1526 1526 1526 1525 1525 1525 1525 1524 1524
1460 1462 1465 1467 1467 1468 1468 1469 1480 1489 1487 1486 1487 1482 1479 1483 1486 1487 1490 1490 1484 1481 1483 1487 1490 1490 1490 1491 1493 1494 1494 1496 1500 1505 1507 1507 1507 1509 1511 1512 1514 1516 1517 1518 1519 1520 1520 1521 1522 1523 1523 1523 1524 1525 1526 1526 1526 1526 1527 1529 1529 1529 1530 1530 1530 1530 1530 1530 1530 1530 1530 1529 1529 1528 1528 1528 1527 1527 1527 1527 1526 1526 1526 1525 1525 1525
1459 1460 1464 1470 1468 1466 1471 1474 1477 1489 1499 1496 1487 1481 1480 1482 1483 1483 1487 1491 1488 1485 1486 1488 1490 1494 1495 1495 1497 1498 1497 1500 1506 1510 1511 1511 1511 1512 1513 1515 1516 1518 1519 1521 1522 1522 1523 1524 1524 1524 1525 1525 1526 1527 1527 1528 1528 1528 1529 1530 1530 1531 1531 1531 1531 1531 1531 1531 1531 1531 1530 1530 1530 1530 1529 1529 1529 1528 1528 1528 1527 1527 1527 1526 1527 1527
1460 1460 1460 1467 1469 1467 1472 1477 1479 1491 1501 1495 1485 1480 1479 1480 1481 1480 1487 1497 1495 1488 1488 1490 1492 1496 1498 1498 1500 1500 1500 1505 1513 1514 1513 1514 1514 1514 1515 1517 1518 1520 1522 1523 1524 1524 1525 1526 1526 1527 1528 1528 1529 1530 1529 1530 1530 1531 1532 1532 1533 1533 1533 1533 1533 1533 1533 1533 1532 1532 1532 1531 1531 1531 1531 1530 1530 1529 1530 1529 1529 1528 1528 1528 1528 1528
1466 1467 1466 1470 1472 1468 1469 1476 1483 1493 1497 1490 1484 1481 1480 1480 1480 1482 1496 1505 1499 1491 1491 1493 1494 1497 1499 1499 1500 1502 1504 1509 1514 1515 1515 1515 1516 1517 1517 1518 1520 1522 1524 1525 1526 1527 1527 1528 1529 1529 1530 1531 1532 1532 1532 1532 1532 1533 1534 1534 1535 1535 1534 1535 1535 1534 1534 1534 1534 1534 1533 1532 1532 1532 1531 1531 1530 1530 1530 1530 1529 1529 1529 1529 1529 1528
1471 1472 1469 1468 1469 1467 1471 1481 1489 1494 1493 1487 1484 1482 1480 1479 1482 1490 1502 1505 1498 1493 1494 1494 1495 1498 1499 1499 1500 1504 1508 1511 1512 1514 1516 1516 1517 1518 1519 1520 1522 1524 1526 1527 1528 1529 1530 1531 1531 1532 1533 1533 1534 1534 1535 1535 1535 1535 1536 1536 1536 1536 1536 1536 1536 1536 1536 1535 1535 1535 1534 1533 1533 1532 1532 1532 1531 1531 1531 1531 1531 1530 1530 1529 1529 1528
1477 1475 1470 1470 1471 1468 1471 1482 1490 1494 1493 1487 1484 1482 1479 1482 1491 1499 1501 1499 1496 1496 1495 1495 1498 1499 1500 1501 1502 1505 1509 1511 1511 1513 1515 1516 1517 1518 1520 1523 1524 1526 1528 1529 1530 1531 1532 1533 1534 1534 1535 1536 1536 1537 1537 1536 1537 1537 1537 1537 1537 1537 1538 1538 1537 1537 1537 1536 1536 1535 1535 1535 1534 1534 1533 1533 1533 1532 1532 1532 1532 1531 1530 1530 1529 1528
1478 1477 1475 1479 1480 1473 1474 1483 1494 1499 1495 1487 1485 1485 1485 1489 1496 1499 1498 1498 1499 1497 1497 1499 1501 1501 1502 1504 1505 1507 1509 1511 1512 1514 1515 1517 1518 1518 1520 1523 1524 1527 1529 1530 1532 1533 1534 1535 1536 1536 1536 1537 1537 1538 1538 1538 1538 1538 1539 1539 1539 1539 1539 1538 1538 1538 1538 1537 1537 1537 1536 1536 1536 1535 1535 1534 1534 1534 1534 1533 1532 1532 1531 1530 1529 1528
1476 1478 1480 1483 1482 1480 1485 1493 1498 1499 1495 1489 1489 1491 1492 1494 1496 1496 1497 1499 1499 1499 1500 1502 1504 1505 1505 1505 1507 1510 1511 1513 1515 1517 1518 1519 1521 1522 1523 1525 1528 1531 1532 1533 1534 1535 1536 1537 1538 1538 1539 1538 1538 1539 1539 1539 1540 1540 1540 1541 1541 1541 1540 1539 1539 1540 1539 1539 1538 1538 1537 1537 1537 1537 1536 1536 1535 1535 1534 1534 1533 1531 1530 1530 1528 1527
1478 1478 1480 1483 1484 1484 1490 1495 1495 1494 1493 1492 1493 1494 1494 1496 1497 1497 1498 1499 1500 1502 1503 1503 1506 1508 1508 1507 1509 1512 1514 1515 1518 1519 1520 1522 1524 1526 1528 1530 1532 1534 1535 1536 1538 1538 1539 1540 1541 1541 1542 1541 1541 1541 1541 1541 1541 1541 1542 1542 1543 1542 1541 1541 1541 1540 1540 1539 1539 1538 1538 1538 1537 1537 1537 1536 1536 1535 1534 1533 1532 1530 1530 1529 1528 1527
1477 1476 1477 1483 1486 1487 1490 1493 1493 1494 1495 1495 1495 1496 1497 1498 1498 1498 1499 1500 1502 1504 1505 1506 1509 1511 1511 1510 1510 1514 1517 1518 1519 1521 1524 1525 1527 1530 1532 1533 1535 1537 1538 1539 1540 1541 1542 1543 1543 1543 1543 1543 1543 1543 1542 1542 1542 1542 1543 1544 1543 1543 1542 1542 1542 1541 1541 1540 1539 1539 1539 1538 1538 1538 1537 1536 1536 1535 1534 1533 1531 1530 1529 1528 1528 1528
1478 1477 1478 1483 1487 1490 1495 1497 1495 1496 1498 1497 1497 1499 1499 1500 1501 1501 1502 1503 1505 1506 1508 1509 1510 1512 1513 1513 1512 1516 1520 1521 1521 1524 1527 1528 1531 1533 1534 1536 1538 1539 1541 1542 1542 1543 1544 1543 1544 1544 1544 1544 1544 1544 1544 1544 1544 1544 1545 1545 1544 1544 1543 1543 1542 1542 1541 1540 1540 1539 1539 1538 1538 1537 1537 1536 1536 1535 1534 1533 1531 1529 1528 1528 1528 1528
1481 1481 1482 1485 1488 1492 1496 1498 1497 1498 1500 1499 1500 1502 1502 1503 1504 1504 1504 1506 1507 1508 1510 1511 1512 1514 1515 1516 1517 1520 1523 1525 1526 1528 1530 1532 1534 1536 1537 1538 1540 1541 1542 1543 1544 1544 1544 1544 1545 1545 1545 1545 1546 1546 1546 1546 1546 1546 1546 1545 1545 1545 1544 1543 1543 1542 1541 1541 1540 1539 1539 1538 1538 1537 1537 1536 1536 1535 1534 1533 1531 1529 1528 1528 1529 1528
1482 1484 1486 1488 1492 1495 1498 1498 1498 1500 1502 1503 1503 1505 1505 1506 1506 1507 1508 1508 1509 1510 1512 1514 1516 1518 1519 1521 1523 1523 1525 1528 1530 1531 1534 1536 1537 1538 1539 1540 1541 1542 1544 1544 1545 1546 1546 1547 1547 1547 1547 1548 1548 1548 1548 1547 1547 1547 1546 1546 1545 1545 1544 1544 1543 1542 1541 1541 1540 1539 1539 1539 1538 1537 1537 1536 1535 1535 1534 1533 1532 1530 1529 1529 1529 1528
1485 1488 1489 1490 1496 1501 1500 1498 1498 1501 1505 1507 1508 1508 1509 1510 1509 1510 1511 1512 1513 1514 1515 1517 1520 1522 1524 1525 1526 1527 1528 1531 1533 1535 1537 1539 1539 1540 1541 1542 1544 1545 1546 1547 1548 1548 1549 1549 1550 1550 1550 1550 1550 1549 1549 1549 1548 1548 1547 1546 1546 1544 1544 1544 1543 1542 1541 1540 1540 1539 1539 1539 1538 1537 1537 1536 1536 1536 1535 1533 1532 1530 1530 1530 1530 1529
1491 1492 1490 1490 1496 1501 1500 1499 1499 1502 1506 1510 1510 1511 1513 1513 1513 1514 1515 1517 1518 1519 1519 1520 1523 1525 1528 1530 1531 1532 1533 1534 1536 1538 1539 1540 1541 1543 1544 1545 1547 1548 1549 1549 1550 1550 1551 1551 1551 1551 1551 1551 1551 1551 1550 1550 1549 1549 1548 1547 1545 1544 1544 1543 1542 1541 1541 1540 1540 1540 1539 1539 1538 1537 1537 1537 1536 1537 1536 1534 1532 1531 1531 1531 1531 1530